WetterOnline ( http://www.wetteronline.de )

Wetter aktuell Lage

Aktuelles Wetter: Bad Lippspringe (158m)

6-stündlich | Neueste Meldungen
Ortszeit Temperatur Wetter
So, 21.10. 2:00 4.7° C bedeckt
Sa, 20.10. 20:00 5.9° C wolkig
Sa, 20.10. 14:00 11.2° C wolkenlos
Sa, 20.10. 8:00 5.7° C Nebel
Sa, 20.10. 2:00 5.2° C leicht bewölkt
Fr, 19.10. 20:00 11.0° C bedeckt
Fr, 19.10. 14:00 14.9° C bewölkt
Fr, 19.10. 8:00 6.9° C bewölkt
Ortszeit Temperatur Wetter
So, 21.10. 5:00 2.9° C leicht bewölkt
So, 21.10. 4:50 2.9° C leicht bewölkt
So, 21.10. 4:40 3.7° C wolkig
So, 21.10. 4:30 3.2° C bewölkt
So, 21.10. 4:20 3.2° C bewölkt
So, 21.10. 4:10 3.2° C wolkig
So, 21.10. 4:00 3.2° C leicht bewölkt
So, 21.10. 3:30 3.6° C leicht bewölkt
So, 21.10. 3:00 4.0° C bewölkt
So, 21.10. 2:30 3.3° C leicht bewölkt
So, 21.10. 2:00 4.7° C bedeckt
Ortszeit Relative Feuchte Sichtweite
So, 21.10. 2:00 96% 8 km
Sa, 20.10. 20:00 88% 17 km
Sa, 20.10. 14:00 65% 15 km
Sa, 20.10. 8:00 100% 100 m
Sa, 20.10. 2:00 97% 28 km
Fr, 19.10. 20:00 82% 30 km
Fr, 19.10. 14:00 67% 28 km
Fr, 19.10. 8:00 98% 9 km
Ortszeit Relative Feuchte Sichtweite
So, 21.10. 5:00 97% 4.8 km
So, 21.10. 4:50 97% -
So, 21.10. 4:40 99% -
So, 21.10. 4:30 99% 4.4 km
So, 21.10. 4:20 99% -
So, 21.10. 4:10 98% -
So, 21.10. 4:00 99% 6 km
So, 21.10. 3:30 98% 5.0 km
So, 21.10. 3:00 99% 8 km
So, 21.10. 2:30 96% 8 km
So, 21.10. 2:00 96% 8 km
Ortszeit Niederschlagsmenge Niederschlagsart
So, 21.10. 2:00 0.0 l/m2 in 6 Std. -
Sa, 20.10. 20:00 0.0 l/m2 in 12 Std. -
Sa, 20.10. 14:00 0.0 l/m2 in 6 Std. -
Sa, 20.10. 8:00 0.0 l/m2 in 12 Std. -
Sa, 20.10. 2:00 0.0 l/m2 in 6 Std. -
Fr, 19.10. 20:00 0.0 l/m2 in 12 Std. -
Fr, 19.10. 14:00 0.0 l/m2 in 6 Std. -
Fr, 19.10. 8:00 0.1 l/m2 in 12 Std. Sprühregen
Ortszeit Niederschlagsmenge Niederschlagsart
So, 21.10. 5:00 0.0 l/m2 in 1 Std. -
So, 21.10. 4:50 keine Meldung -
So, 21.10. 4:40 keine Meldung -
So, 21.10. 4:30 0.0 l/m2 in 1 Std. -
So, 21.10. 4:20 keine Meldung -
So, 21.10. 4:10 keine Meldung -
So, 21.10. 4:00 0.0 l/m2 in 1 Std. -
So, 21.10. 3:30 0.0 l/m2 in 1 Std. -
So, 21.10. 3:00 0.0 l/m2 in 1 Std. -
So, 21.10. 2:30 0.0 l/m2 in 1 Std. -
So, 21.10. 2:00 0.0 l/m2 in 1 Std. -
Ortszeit Stärke Spitze Richtung
km/h Bft. km/h Grad Sektor
So, 21.10. 2:00 4 1 7 10° N
Sa, 20.10. 20:00 6 1 17 70° O
Sa, 20.10. 14:00 7 2 11 280° W
Sa, 20.10. 8:00 2 1 9 70° O
Sa, 20.10. 2:00 4 1 22 60° NO
Fr, 19.10. 20:00 6 1 20 340° N
Fr, 19.10. 14:00 9 2 20 130° SO
Fr, 19.10. 8:00 4 1 29 220° SW
Ortszeit Stärke Spitze Richtung
km/h Bft. km/h Grad Sektor
So, 21.10. 5:00 2 1 6 50° NO
So, 21.10. 4:50 2 1 - 50° NO
So, 21.10. 4:40 0 0 - 190° S
So, 21.10. 4:30 4 1 7 150° SO
So, 21.10. 4:20 4 1 - 150° SO
So, 21.10. 4:10 2 1 - 70° O
So, 21.10. 4:00 4 1 7 70° O
So, 21.10. 3:30 4 1 7 40° NO
So, 21.10. 3:00 0 0 4 - -
So, 21.10. 2:30 4 1 4 60° NO
So, 21.10. 2:00 4 1 7 10° N
Ortszeit Untergrenze Bedeckung Gattung
total tief tief mittel hoch
So, 21.10. 2:00 6900 m 8/8 8/8 - - -
Sa, 20.10. 20:00 8100 m 8/8 0/8 - - -
Sa, 20.10. 14:00 - 0/8 0/8 - - -
Sa, 20.10. 8:00 <30 m 8/8 8/8 - - -
Sa, 20.10. 2:00 5400 m 2/8 1/8 - - -
Fr, 19.10. 20:00 6000 m 8/8 8/8 - - -
Fr, 19.10. 14:00 720 m 8/8 5/8 - - -
Fr, 19.10. 8:00 1380 m 7/8 7/8 - - -
Ortszeit Bedeckungsgrad in Achtel und Wolkenuntergrenze
So, 21.10. 5:00 1(480m) 4(3900m)
So, 21.10. 4:50 1(480m) 4(3900m)
So, 21.10. 4:40 2(510m) 7(3900m)
So, 21.10. 4:30 7(510m) 7(4200m)
So, 21.10. 4:20 7(510m) 7(4200m)
So, 21.10. 4:10 5(510m) 6(1260m) 6(4200m)
So, 21.10. 4:00 2(660m) 3(1500m) 6(1350m)
So, 21.10. 3:30 2(480m) 2(690m) 2(1500m)
So, 21.10. 3:00 6(690m) 7(9000m)
So, 21.10. 2:30 4(6900m) 3(6900m) 6(9000m)
So, 21.10. 2:00 8(6900m)
Ortszeit Luftdruck NN (hPa) Tendenz (hPa in 3 Std.)
So, 21.10. 2:00 1031 - 0,6
Sa, 20.10. 20:00 1031 + 0,4
Sa, 20.10. 14:00 1031 - 0,4
Sa, 20.10. 8:00 1030 + 1,7
Sa, 20.10. 2:00 1027 + 0,8
Fr, 19.10. 20:00 1025 + 1,3
Fr, 19.10. 14:00 1025 - 0,9
Fr, 19.10. 8:00 1025 + 0,3
Ortszeit Luftdruck NN (hPa) Tendenz (hPa in 3 Std.)
So, 21.10. 5:00 1031 - 0,2
So, 21.10. 4:50 1031 keine Meldung
So, 21.10. 4:40 1031 keine Meldung
So, 21.10. 4:30 1031 - 0,2
So, 21.10. 4:20 1031 keine Meldung
So, 21.10. 4:10 1031 keine Meldung
So, 21.10. 4:00 1031 - 0,3
So, 21.10. 3:30 1031 - 0,5
So, 21.10. 3:00 1031 - 0,5
So, 21.10. 2:30 1031 - 0,5
So, 21.10. 2:00 1031 - 0,6
Ortszeit Schneehöhe (cm)
So, 21.10. 2:00 0
Sa, 20.10. 20:00 0
Sa, 20.10. 14:00 0
Sa, 20.10. 8:00 0
Sa, 20.10. 2:00 0
Fr, 19.10. 20:00 0
Fr, 19.10. 14:00 0
Fr, 19.10. 8:00 0
Ortszeit Schneehöhe (cm)
So, 21.10. 5:00 0
So, 21.10. 4:50 0
So, 21.10. 4:40 0
So, 21.10. 4:30 0
So, 21.10. 4:20 0
So, 21.10. 4:10 0
So, 21.10. 4:00 0
So, 21.10. 3:30 0
So, 21.10. 3:00 0
So, 21.10. 2:30 0
So, 21.10. 2:00 0
Link zu dieser Seite / Seite empfehlen

Das Wetter in ...